Meteo orario Abay (Syrdarinskiy rayon)

Oggi, 5 Marzo, Venerdi

Tempo Temperatura Precipitazioni Vento Pressione Umidità
00:00 -4°C° 0 mm 4 m/s 758 mm Hg 83%
01:00 -4°C° 0 mm 3 m/s 758 mm Hg 84%
02:00 -4°C° 0 mm 3 m/s 759 mm Hg 84%
03:00 -4°C° 0 mm 3 m/s 759 mm Hg 84%
04:00 -4°C° 0 mm 3 m/s 760 mm Hg 87%
05:00 -4°C° 0 mm 3 m/s 760 mm Hg 87%
06:00 -3°C° 0 mm 4 m/s 761 mm Hg 88%
07:00 -3°C° 0 mm 4 m/s 761 mm Hg 88%
08:00 -1°C° 0 mm 5 m/s 761 mm Hg 80%
09:00 0°C° 0 mm 5 m/s 761 mm Hg 71%
10:00 +1°C° 0 mm 6 m/s 761 mm Hg 62%
11:00 +2°C° 0 mm 5 m/s 761 mm Hg 58%
12:00 +2°C° 0 mm 5 m/s 760 mm Hg 54%
13:00 +3°C° 0 mm 5 m/s 760 mm Hg 51%
14:00 +4°C° 0 mm 4 m/s 759 mm Hg 50%
15:00 +4°C° 0 mm 4 m/s 759 mm Hg 49%
16:00 +4°C° 0 mm 3 m/s 758 mm Hg 48%
17:00 +3°C° 0 mm 3 m/s 758 mm Hg 51%
18:00 +2°C° 0 mm 3 m/s 758 mm Hg 54%
19:00 +2°C° 0 mm 2 m/s 757 mm Hg 57%
20:00 +2°C° 0 mm 2 m/s 757 mm Hg 58%
21:00 +1°C° 0 mm 2 m/s 757 mm Hg 59%
22:00 +1°C° 0 mm 2 m/s 757 mm Hg 60%
23:00 0°C° 0 mm 3 m/s 756 mm Hg 62%

Domani, 6 Marzo, Sabato

Tempo Temperatura Precipitazioni Vento Pressione Umidità
00:00 -1°C° 0 mm 3 m/s 755 mm Hg 65%
01:00 -1°C° 0 mm 3 m/s 755 mm Hg 67%
02:00 -1°C° 0 mm 3 m/s 754 mm Hg 68%
03:00 -1°C° 0 mm 3 m/s 754 mm Hg 68%
04:00 -1°C° 0 mm 2 m/s 754 mm Hg 69%
05:00 -1°C° 0 mm 3 m/s 754 mm Hg 69%
06:00 -1°C° 0 mm 3 m/s 753 mm Hg 69%
07:00 -2°C° 0 mm 4 m/s 753 mm Hg 69%
08:00 -1°C° 0 mm 4 m/s 753 mm Hg 65%
09:00 +1°C° 0 mm 5 m/s 753 mm Hg 61%
10:00 +2°C° 0 mm 5 m/s 753 mm Hg 57%
11:00 +3°C° 0 mm 5 m/s 752 mm Hg 56%
12:00 +5°C° 0 mm 5 m/s 752 mm Hg 55%
13:00 +5°C° 0 mm 5 m/s 752 mm Hg 55%
14:00 +5°C° 0 mm 5 m/s 752 mm Hg 56%
15:00 +5°C° 0 mm 5 m/s 752 mm Hg 56%
16:00 +5°C° 0 mm 5 m/s 751 mm Hg 57%
17:00 +3°C° 0 mm 5 m/s 752 mm Hg 61%
18:00 +3°C° 0 mm 4 m/s 752 mm Hg 65%
19:00 +1°C° 0 mm 4 m/s 753 mm Hg 68%
20:00 0°C° 0 mm 4 m/s 753 mm Hg 70%
21:00 +1°C° 0 mm 3 m/s 753 mm Hg 72%
22:00 0°C° 0 mm 3 m/s 753 mm Hg 74%
23:00 0°C° 0 mm 3 m/s 753 mm Hg 74%

Dopodomani, 7 Marzo, Domenica

Tempo Temperatura Precipitazioni Vento Pressione Umidità
00:00 -1°C° 0 mm 2 m/s 753 mm Hg 73%
01:00 -1°C° 0 mm 2 m/s 753 mm Hg 73%
02:00 -1°C° 0 mm 2 m/s 753 mm Hg 73%
03:00 -1°C° 0 mm 2 m/s 753 mm Hg 72%
04:00 -1°C° 0 mm 2 m/s 753 mm Hg 72%
05:00 -1°C° 0 mm 2 m/s 753 mm Hg 71%
06:00 -1°C° 0 mm 2 m/s 753 mm Hg 69%
07:00 -1°C° 0 mm 2 m/s 753 mm Hg 68%
08:00 +2°C° 0 mm 1 m/s 754 mm Hg 61%
09:00 +4°C° 0 mm 1 m/s 754 mm Hg 55%
10:00 +5°C° 0 mm 1 m/s 754 mm Hg 49%
11:00 +6°C° 0 mm 1 m/s 753 mm Hg 46%
12:00 +7°C° 0 mm 1 m/s 753 mm Hg 43%
13:00 +7°C° 0 mm 1 m/s 753 mm Hg 40%
14:00 +8°C° 0 mm 1 m/s 752 mm Hg 40%
15:00 +7°C° 0 mm 2 m/s 752 mm Hg 40%
16:00 +7°C° 0 mm 3 m/s 751 mm Hg 40%
17:00 +5°C° 0 mm 3 m/s 751 mm Hg 44%
18:00 +4°C° 0 mm 3 m/s 751 mm Hg 48%
19:00 +3°C° 0 mm 3 m/s 751 mm Hg 52%
20:00 +3°C° 0 mm 3 m/s 751 mm Hg 52%
21:00 +3°C° 0 mm 3 m/s 751 mm Hg 51%
22:00 +2°C° 0 mm 3 m/s 751 mm Hg 51%
23:00 +2°C° 0 mm 3 m/s 750 mm Hg 53%

8 Marzo, Lunedi

Tempo Temperatura Precipitazioni Vento Pressione Umidità
00:00 +1°C° 0 mm 4 m/s 750 mm Hg 56%
01:00 +1°C° 0 mm 4 m/s 749 mm Hg 58%
02:00 +1°C° 0 mm 4 m/s 749 mm Hg 59%
03:00 +1°C° 0 mm 4 m/s 749 mm Hg 59%
04:00 +1°C° 0 mm 4 m/s 749 mm Hg 60%
05:00 +1°C° 0 mm 5 m/s 749 mm Hg 58%
06:00 +1°C° 0 mm 5 m/s 750 mm Hg 56%
07:00 +1°C° 0 mm 5 m/s 750 mm Hg 54%
08:00 +3°C° 0 mm 4 m/s 751 mm Hg 58%
09:00 +4°C° 0 mm 4 m/s 752 mm Hg 62%
10:00 +5°C° 0 mm 4 m/s 752 mm Hg 66%
11:00 +5°C° 0 mm 4 m/s 753 mm Hg 68%
12:00 +3°C° 0 mm 5 m/s 753 mm Hg 70%
13:00 +3°C° 0 mm 5 m/s 753 mm Hg 71%
14:00 +3°C° 0 mm 5 m/s 753 mm Hg 67%
15:00 +4°C° 0 mm 4 m/s 754 mm Hg 62%
16:00 +4°C° 0 mm 4 m/s 754 mm Hg 57%
17:00 +3°C° 0 mm 4 m/s 754 mm Hg 57%
18:00 +2°C° 0 mm 3 m/s 755 mm Hg 56%
19:00 +1°C° 0 mm 3 m/s 755 mm Hg 55%
20:00 -1°C° 0 mm 4 m/s 755 mm Hg 59%
21:00 -1°C° 0 mm 4 m/s 755 mm Hg 63%
22:00 -2°C° 0 mm 5 m/s 755 mm Hg 66%
23:00 -2°C° 0 mm 5 m/s 755 mm Hg 67%

9 Marzo, Martedi

Tempo Temperatura Precipitazioni Vento Pressione Umidità
00:00 -2°C° 0 mm 5 m/s 755 mm Hg 67%
01:00 -4°C° 0 mm 5 m/s 754 mm Hg 67%
02:00 -4°C° 0 mm 5 m/s 754 mm Hg 67%
03:00 -3°C° 0 mm 4 m/s 754 mm Hg 67%
04:00 -3°C° 0 mm 4 m/s 753 mm Hg 67%
05:00 -3°C° 0 mm 4 m/s 753 mm Hg 67%
06:00 -4°C° 0 mm 5 m/s 753 mm Hg 67%
07:00 -4°C° 0 mm 5 m/s 753 mm Hg 68%
08:00 -1°C° 0 mm 5 m/s 752 mm Hg 67%
09:00 +1°C° 0 mm 4 m/s 752 mm Hg 66%
10:00 +3°C° 0 mm 4 m/s 752 mm Hg 65%
11:00 +4°C° 0 mm 4 m/s 751 mm Hg 64%
12:00 +5°C° 0 mm 4 m/s 751 mm Hg 62%
13:00 +7°C° 0 mm 5 m/s 750 mm Hg 61%
14:00 +7°C° 0 mm 5 m/s 750 mm Hg 63%
15:00 +7°C° 0 mm 5 m/s 749 mm Hg 64%
16:00 +7°C° 0 mm 5 m/s 749 mm Hg 65%
17:00 +5°C° 0 mm 5 m/s 748 mm Hg 70%
18:00 +3°C° 0 mm 5 m/s 748 mm Hg 74%
19:00 +2°C° 0 mm 6 m/s 748 mm Hg 78%
20:00 +2°C° 0 mm 5 m/s 748 mm Hg 80%
21:00 +1°C° 0 mm 5 m/s 747 mm Hg 82%
22:00 +1°C° 0 mm 5 m/s 747 mm Hg 84%
23:00 +1°C° 0 mm 4 m/s 747 mm Hg 86%

10 Marzo, Mercoledi

Tempo Temperatura Precipitazioni Vento Pressione Umidità
00:00 0°C° 0 mm 4 m/s 746 mm Hg 87%
01:00 +1°C° 0 mm 3 m/s 746 mm Hg 89%
02:00 +1°C° 0 mm 3 m/s 746 mm Hg 89%
03:00 -1°C° 0 mm 4 m/s 745 mm Hg 89%
04:00 -1°C° 0 mm 4 m/s 745 mm Hg 88%
05:00 -1°C° 0 mm 4 m/s 746 mm Hg 88%
06:00 -2°C° 0 mm 5 m/s 746 mm Hg 88%
07:00 -2°C° 0 mm 5 m/s 746 mm Hg 88%
08:00 -2°C° 0 mm 5 m/s 747 mm Hg 84%
09:00 -2°C° 0 mm 6 m/s 747 mm Hg 80%
10:00 -2°C° 0 mm 6 m/s 748 mm Hg 75%
11:00 -1°C° 0 mm 6 m/s 749 mm Hg 66%
12:00 0°C° 0 mm 7 m/s 749 mm Hg 57%
13:00 +2°C° 0 mm 7 m/s 750 mm Hg 48%
14:00 +2°C° 0 mm 7 m/s 750 mm Hg 47%
15:00 +1°C° 0 mm 6 m/s 750 mm Hg 47%
16:00 +1°C° 0 mm 6 m/s 751 mm Hg 47%
17:00 +1°C° 0 mm 4 m/s 751 mm Hg 52%
18:00 +1°C° 0 mm 3 m/s 752 mm Hg 58%
19:00 +1°C° 0 mm 2 m/s 753 mm Hg 64%
20:00 +1°C° 0 mm 2 m/s 753 mm Hg 64%
21:00 +1°C° 0 mm 2 m/s 753 mm Hg 64%
22:00 +1°C° 0 mm 2 m/s 753 mm Hg 64%
23:00 -1°C° 0 mm 2 m/s 753 mm Hg 62%
Mostrare altro

Abbiamo bisogno del tuo consenso

Meteoprog e i nostri fornitori di servizi possono memorizzare e accedere a dati personali come cookie, identificatori di dispositivi o altre tecnologie simili sul tuo dispositivo e possono elaborare tali dati per personalizzare i contenuti e gli annunci, nonché fornire funzionalità dei social media e analizzarne il traffico.

  • Archiviare e/o accedere alle informazioni sul tuo dispositivo

    Cookie, identificatori di dispositivi o altre informazioni possono essere memorizzati o resi accessibili sul tuo dispositivo per le finalità sopra indicate.

  • Annunci e contenuti personalizzati, misurazione di annunci e contenuti, approfondimenti sul pubblico e sviluppo di prodotti

    Gli annunci e i contenuti possono essere personalizzati in base a un profilo. È possibile aggiungere più dati per personalizzare meglio annunci e contenuti. È possibile misurare il rendimento degli annunci e dei contenuti. È possibile ricavare informazioni sul pubblico che ha visto gli annunci e i contenuti. Tali dati possono essere utilizzati per sviluppare o migliorare l'esperienza, i sistemi e il software dell'utente.

Cliccando su “Accetto”, acconsenti all'uso di cookie, identificatori di dispositivo, web beacon o altre tecnologie simili. Puoi modificare le impostazioni nel browser del tuo dispositivo.

Per determinati scopi, è possibile fare affidamento su interessi legali, piuttosto che sul consenso. Puoi approfondire questo argomento consultando la nostra Informativa sulla privacy e sui cookie.